Weather History for Williams, AZ

Change the Weather History Date:

Tuesday, December 4, 2012

  Actual Average (KFLG) Record (KFLG)
Temperature  
Mean Temperature 42 °F 31 °F  
Max Temperature 59 °F 44 °F 67 °F (1965)
Min Temperature 26 °F 18 °F -4 °F (1952)
Degree Days  
Heating Degree Days 22 34  
Month to date heating degree days 135  
Since 1 July heating degree days 1867  
Cooling Degree Days 0 0  
Month to date cooling degree days 0  
Year to date cooling degree days 117  
Moisture  
Dew Point 26 °F    
Average Humidity 58    
Maximum Humidity 93    
Minimum Humidity 16    
Precipitation  
Precipitation 0.00 in 0.06 in 1.55 in (1992)
Month to date precipitation 0.22  
Year to date precipitation 20.21  
Snow  
Snow 0.00 in 0.50 in 14.60 in (1992)
Month to date snowfall 1.9  
Since 1 July snowfall 14.1  
Snow Depth -    
Sea Level Pressure  
Sea Level Pressure 30.43 in    
Wind  
Wind Speed 8 mph (SSE)    
Max Wind Speed 13 mph    
Max Gust Speed -    
Visibility 10 miles    
Events      
T = Trace of Precipitation, MM = Missing Value Source: NWS Daily Summary

Daily Weather History Graph

Daily Weather History Graph

Search for Another Location

Airport:

Trip Planner

Search our weather history database for the weather conditions in past years. The results will help you decide how hot, cold, wet, or windy it might be!

Date:

Astronomy

Dec. 04, 2012 Rise Set
Actual Time 7:22 AM MST 5:16 PM MST
Civil Twilight 6:54 AM MST 5:44 PM MST
Nautical Twilight 6:22 AM MST 6:15 PM MST
Astronomical Twilight 5:51 AM MST 6:46 PM MST
Moon 10:58 PM MST (12/4) 11:25 AM MST (12/4)
Length of Visible Light 10h 49m
Length of Day
9h 53m
Waning Gibbous, 69% of the Moon is Illuminated
Dec 4
Waning Gibbous
Dec 6
Last Quarter
Dec 13
New
Dec 19
First Quarter
Dec 28
Full

Hourly Weather History & Observations

Time (MST) Temp. Windchill Dew Point Humidity Pressure Visibility Wind Dir Wind Speed Gust Speed Precip Events Conditions
12:15 AM 28.4 °F 19.1 °F 26.6 °F 93% 30.39 in 10.0 mi SSE 10.4 mph - N/A   Clear
12:35 AM 28.4 °F 19.7 °F 26.6 °F 93% 30.39 in 10.0 mi SSE 9.2 mph - N/A   Clear
12:55 AM 26.6 °F 18.2 °F 24.8 °F 93% 30.38 in 10.0 mi SSE 8.1 mph - N/A   Clear
1:15 AM 28.4 °F 20.4 °F 26.6 °F 93% 30.38 in 10.0 mi SSE 8.1 mph - N/A   Clear
1:55 AM 28.4 °F 22.2 °F 26.6 °F 93% 30.39 in 10.0 mi South 5.8 mph - N/A   Clear
2:15 AM 28.4 °F 20.4 °F 26.6 °F 93% 30.40 in 10.0 mi SSE 8.1 mph - N/A   Clear
2:35 AM 28.4 °F 19.1 °F 26.6 °F 93% 30.40 in 10.0 mi SSE 10.4 mph - N/A   Clear
2:55 AM 28.4 °F 20.4 °F 26.6 °F 93% 30.40 in 10.0 mi SSE 8.1 mph - N/A   Clear
3:15 AM 30.2 °F 24.3 °F 28.4 °F 93% 30.41 in 10.0 mi South 5.8 mph - N/A   Clear
3:35 AM 28.4 °F 20.4 °F 26.6 °F 93% 30.41 in 10.0 mi SSE 8.1 mph - N/A   Clear
3:55 AM 28.4 °F 21.2 °F 26.6 °F 93% 30.40 in 10.0 mi SSE 6.9 mph - N/A   Clear
4:15 AM 30.2 °F 22.6 °F 28.4 °F 93% 30.40 in 10.0 mi SSE 8.1 mph - N/A   Clear
4:35 AM 28.4 °F 21.2 °F 26.6 °F 93% 30.41 in 10.0 mi SSE 6.9 mph - N/A   Clear
4:55 AM 28.4 °F 20.4 °F 26.6 °F 93% 30.41 in 10.0 mi SE 8.1 mph - N/A   Clear
5:15 AM 30.2 °F 22.6 °F 28.4 °F 93% 30.41 in 10.0 mi SSE 8.1 mph - N/A   Clear
5:35 AM 32.0 °F 24.2 °F 28.4 °F 87% 30.42 in 10.0 mi SSE 9.2 mph - N/A   Clear
5:55 AM 30.2 °F 22.6 °F 26.6 °F 86% 30.43 in 10.0 mi SSE 8.1 mph - N/A   Clear
6:15 AM 32.0 °F 25.6 °F 28.4 °F 87% 30.43 in 10.0 mi SSE 6.9 mph - N/A   Clear
6:35 AM 32.0 °F 26.4 °F 28.4 °F 87% 30.45 in 10.0 mi SE 5.8 mph - N/A   Clear
6:55 AM 32.0 °F 25.6 °F 28.4 °F 87% 30.46 in 10.0 mi SSE 6.9 mph - N/A   Clear
7:15 AM 32.0 °F 25.6 °F 28.4 °F 87% 30.47 in 10.0 mi SE 6.9 mph - N/A   Clear
7:35 AM 32.0 °F 23.6 °F 28.4 °F 87% 30.47 in 10.0 mi SSE 10.4 mph - N/A   Clear
7:55 AM 33.8 °F 27.7 °F 30.2 °F 87% 30.47 in 10.0 mi SSE 6.9 mph - N/A   Clear
8:15 AM 35.6 °F 29.2 °F 30.2 °F 81% 30.47 in 10.0 mi SSE 8.1 mph - N/A   Clear
8:35 AM 33.8 °F 27.7 °F 28.4 °F 81% 30.48 in 10.0 mi SE 6.9 mph - N/A   Clear
8:55 AM 39.2 °F 35.9 °F 32.0 °F 75% 30.48 in 10.0 mi SE 4.6 mph - N/A   Clear
9:15 AM 44.6 °F 39.2 °F 32.0 °F 61% 30.47 in 10.0 mi SE 10.4 mph - N/A   Clear
9:35 AM 46.4 °F 41.5 °F 32.0 °F 57% 30.47 in 10.0 mi SE 10.4 mph - N/A   Clear
9:55 AM 50.0 °F - 32.0 °F 50% 30.48 in 10.0 mi SE 9.2 mph - N/A   Clear
10:15 AM 51.8 °F - 30.2 °F 44% 30.48 in 10.0 mi SSE 12.7 mph - N/A   Clear
10:35 AM 53.6 °F - 28.4 °F 38% 30.47 in 10.0 mi SSE 10.4 mph - N/A   Clear
10:55 AM 55.4 °F - 26.6 °F 33% 30.47 in 10.0 mi SE 10.4 mph - N/A   Clear
11:15 AM 57.2 °F - 26.6 °F 31% 30.46 in 10.0 mi SSE 9.2 mph - N/A   Clear
11:35 AM 57.2 °F - 23.0 °F 27% 30.46 in 10.0 mi SE 10.4 mph - N/A   Clear
11:55 AM 59.0 °F - 19.4 °F 22% 30.45 in 10.0 mi SE 5.8 mph - N/A   Clear
12:15 PM 59.0 °F - 19.4 °F 22% 30.45 in 10.0 mi East 4.6 mph - N/A   Clear
12:35 PM 59.0 °F - 15.8 °F 19% 30.44 in 10.0 mi Calm Calm - N/A   Clear
12:55 PM 59.0 °F - 12.2 °F 16% 30.44 in 10.0 mi NE 3.5 mph - N/A   Clear
1:15 PM 59.0 °F - 26.6 °F 29% 30.44 in 10.0 mi WNW 12.7 mph - N/A   Clear
1:35 PM 59.0 °F - 28.4 °F 31% 30.44 in 10.0 mi West 9.2 mph - N/A   Clear
1:55 PM 59.0 °F - 28.4 °F 31% 30.43 in 10.0 mi WNW 8.1 mph - N/A   Clear
2:15 PM 59.0 °F - 26.6 °F 29% 30.43 in 10.0 mi WNW 5.8 mph - N/A   Clear
2:35 PM 59.0 °F - 24.8 °F 27% 30.41 in 10.0 mi NNW 4.6 mph - N/A   Clear
2:55 PM 59.0 °F - 24.8 °F 27% 30.42 in 10.0 mi SW 3.5 mph - N/A   Clear
3:15 PM 59.0 °F - 24.8 °F 27% 30.43 in 10.0 mi NW 8.1 mph - N/A   Clear
3:35 PM 59.0 °F - 26.6 °F 29% 30.43 in 10.0 mi NW 5.8 mph - N/A   Clear
3:55 PM 59.0 °F - 26.6 °F 29% 30.43 in 10.0 mi West 4.6 mph - N/A   Clear
4:15 PM 57.2 °F - 26.6 °F 31% 30.43 in 10.0 mi WNW 4.6 mph - N/A   Clear
4:35 PM 55.4 °F - 26.6 °F 33% 30.44 in 10.0 mi WNW 5.8 mph - N/A   Clear
4:55 PM 53.6 °F - 28.4 °F 38% 30.44 in 10.0 mi Calm Calm - N/A   Clear
5:15 PM 53.6 °F - 28.4 °F 38% 30.44 in 10.0 mi Calm Calm - N/A   Clear
5:35 PM 51.8 °F - 28.4 °F 41% 30.44 in 10.0 mi Calm Calm - N/A   Clear
5:55 PM 46.4 °F 45.2 °F 26.6 °F 46% 30.44 in 10.0 mi SE 3.5 mph - N/A   Clear
6:15 PM 46.4 °F 42.9 °F 26.6 °F 46% 30.44 in 10.0 mi SSE 6.9 mph - N/A   Clear
6:35 PM 46.4 °F 43.5 °F 28.4 °F 50% 30.44 in 10.0 mi SSE 5.8 mph - N/A   Clear
6:55 PM 46.4 °F 43.5 °F 26.6 °F 46% 30.44 in 10.0 mi South 5.8 mph - N/A   Clear
7:15 PM 44.6 °F 40.2 °F 26.6 °F 49% 30.43 in 10.0 mi SSE 8.1 mph - N/A   Clear
7:35 PM 42.8 °F 38.6 °F 26.6 °F 53% 30.43 in 10.0 mi SE 6.9 mph - N/A   Clear
7:55 PM 44.6 °F 42.2 °F 24.8 °F 46% 30.43 in 10.0 mi SE 4.6 mph - N/A   Clear
8:15 PM 44.6 °F 40.7 °F 24.8 °F 46% 30.43 in 10.0 mi SSE 6.9 mph - N/A   Clear
8:35 PM 44.6 °F 40.2 °F 24.8 °F 46% 30.43 in 10.0 mi SE 8.1 mph - N/A   Clear
8:55 PM 44.6 °F 40.2 °F 24.8 °F 46% 30.43 in 10.0 mi SE 8.1 mph - N/A   Clear
9:15 PM 42.8 °F 37.5 °F 24.8 °F 49% 30.43 in 10.0 mi SSE 9.2 mph - N/A   Clear
9:35 PM 41.0 °F 35.2 °F 24.8 °F 53% 30.42 in 10.0 mi SSE 9.2 mph - N/A   Clear
9:55 PM 41.0 °F 35.8 °F 24.8 °F 53% 30.43 in 10.0 mi SSE 8.1 mph - N/A   Clear
10:15 PM 41.0 °F 37.1 °F 24.8 °F 53% 30.43 in 10.0 mi SSE 5.8 mph - N/A   Clear
10:35 PM 41.0 °F 37.1 °F 23.0 °F 49% 30.43 in 10.0 mi SSE 5.8 mph - N/A   Clear
10:55 PM 44.6 °F 43.1 °F 23.0 °F 43% 30.43 in 10.0 mi South 3.5 mph - N/A   Clear
11:15 PM 39.2 °F 34.2 °F 23.0 °F 52% 30.44 in 10.0 mi SE 6.9 mph - N/A   Clear
11:35 PM 39.2 °F 37.0 °F 23.0 °F 52% 30.44 in 10.0 mi SE 3.5 mph - N/A   Clear
11:55 PM 39.2 °F 35.0 °F 21.2 °F 49% 30.44 in 10.0 mi SSE 5.8 mph - N/A   Clear